Regional Weather Roundup
Issued by NWS Upton, NY

Current Version | Previous Version | Graphics & Text | Print | Product List | Glossary Off
Versions: 1 2 3 4 5 6 7 8 9 10 11 12 13 14 15 16 17 18 19 20 21 22 23 24 25 26 27 28 29 30 31 32 33 34 35 36 37 38 39 40 41 42 43 44 45 46 47 48 49 50

000
ASUS41 KOKX 190105
RWROKX

REGIONAL WEATHER ROUNDUP
NATIONAL WEATHER SERVICE NEW YORK NY
900 PM EDT THU SEP 18 2014

NOTE: "FAIR" INDICATES FEW OR NO CLOUDS BELOW 12,000 FEET WITH NO
SIGNIFICANT WEATHER AND/OR OBSTRUCTIONS TO VISIBILITY.

NYZ071-072-176-178-NJZ106-104-190200-
NEW YORK CITY METRO AREA


CITY           SKY/WX    TMP DP  RH WIND       PRES   REMARKS
CENTRAL PARK   PTCLDY    67  44  43 NE3       30.07R
LAGUARDIA APRT PTCLDY    70  51  51 E6        30.04R
KENNEDY INTL   PTCLDY    68  55  63 S5        30.05R
NEWARK/LIBERTY PTCLDY    71  44  37 N9        30.04R
BRNX BOT. GARD   N/A     63  46  55 N1        30.07R
TETERBORO      CLEAR     64  45  49 CALM      30.04R
$$

NYZ177-179-078>081-190200-
LONG ISLAND NEW YORK

CITY           SKY/WX    TMP DP  RH WIND       PRES   REMARKS
FARMINGDALE    CLEAR     66  54  65 W3        30.05R
ISLIP          PTCLDY    62  53  72 CALM      30.04R
SHIRLEY        CLEAR     59  51  75 CALM      30.05R
WESTHAMPTON    CLEAR     52  42  69 CALM      30.06R
MONTAUK POINT    N/A     59  53  80 CALM      30.05R
$$

NYZ052-065-067-190200-
HUDSON VALLEY

CITY           SKY/WX    TMP DP  RH WIND       PRES   REMARKS
WHITE PLAINS   PTCLDY    60  50  69 CALM      30.05R
NEWBURGH       MOCLDY    64  52  63 NE8       30.08R
MONTGOMERY     MOCLDY    58  50  75 CALM      30.07R
POUGHKEEPSIE   CLOUDY    64  51  62 N9        30.07R
ALBANY         MOCLDY    53  44  71 N8        30.15R
$$

NJZ001-105-106-008-010-013-015-019>022-104-190200-
NEW JERSEY

CITY           SKY/WX    TMP DP  RH WIND       PRES   REMARKS
NEWARK/LIBERTY PTCLDY    71  44  37 N9        30.04R
TETERBORO      CLEAR     64  45  49 CALM      30.04R
CALDWELL       CLEAR     59  48  67 CALM      30.06R
MORRISTOWN     CLEAR     55  50  82 CALM      30.06R
SOMERVILLE     NOT AVBL
LINDEN         FAIR      72  49  44 NW5       30.06R
SUSSEX         CLEAR     53  49  86 CALM      30.08R
ANDOVER          N/A     52  50  93 CALM      30.08R
TRENTON        MOCLDY    64  52  64 N5        30.05R
MILLVILLE      CLEAR     58  56  93 CALM      30.06R
ATLANTIC CITY  CLEAR     62  56  80 CALM      30.06R
WRIGHTSTOWN    PTCLDY    59  55  88 SW2       30.03R
TOMS RIVER     CLEAR     57  52  82 CALM      30.06R
BELMAR         CLEAR     64  50  59 SW6       30.05R
$$

PAZ047>061-062-071-190200-
EASTERN PENNSYLVANIA

CITY           SKY/WX    TMP DP  RH WIND       PRES   REMARKS
PHILADELPHIA   PTCLDY    67  55  65 SW8       30.06R
ALLENTOWN      CLEAR     63  42  46 NW3       30.07R
SCRANTON       PTCLDY    57  46  66 CALM      30.11R
$$

CTZ002-004>006-009-010-012-RIZ004-006-007-MAZ004-011-015-190200-
SOUTHERN NEW ENGLAND
 IN CT

CITY           SKY/WX    TMP DP  RH WIND       PRES   REMARKS
BRADLEY INTL   PTCLDY    60  50  69 NW8       30.06R
HARTFORD       PTCLDY    64  49  57 N6        30.06R
DANBURY        CLEAR     53  50  89 SW5       30.08R
WTRBRY/OXFORD  NOT AVBL
BRIDGEPORT     CLEAR     64  50  60 N5        30.05R
MERIDEN        CLEAR     55  49  80 CALM      30.06R
NEW HAVEN      CLEAR     59  47  64 CALM      30.05R
CHESTER        FAIR      57  48  72 NW3       30.06R
GROTON         CLEAR     57  52  83 CALM      30.04R
WILLIMANTIC    PTCLDY    57  53  86 NE3       30.06R

 IN RI

CITY           SKY/WX    TMP DP  RH WIND       PRES   REMARKS
PROVIDENCE     MOCLDY    65  49  56 N6        30.05R
BLOCK ISLAND   CLEAR     64  55  72 NW5       30.04R
WESTERLY       CLEAR     58  51  78 CALM      30.04R

 IN MA

CITY           SKY/WX    TMP DP  RH WIND       PRES   REMARKS
BOSTON         MOCLDY    65  50  58 N12       30.06R
WORCESTER      PTCLDY    58  48  69 N9        30.08R
WESTFIELD      PTCLDY    59  50  72 N7        30.08R
PROVINCETOWN   CLOUDY    59  54  82 W3        30.05R
NANTUCKET      CLEAR     56  49  77 CALM      30.03R
$$

ANZ330-335-338-340-345-350-353-355-190200-
COASTAL MARINE OBSERVATIONS


STATION/POSITION TIME  SKY/WX   TEMP    WIND        PRES    VSBY  WAVE
                                AIR SEA DIR/SP/G                  HT/PER
                 (UTC)          (F)     (DEG/KT/KT) (MB)    (MI)  (FT/S)
NY HARB ENTRANCE 0100            70 71  210/ 10/ 12 1017.7          2/12
4S FIRE IS       0100               71                N/A           2/12
23SW MTP         0100                                 N/A           2/12
HUDSON CANYON    0100            69 73  360/  6/  8 1017.2          3/11
EXECUTION ROCKS  0100            71 70  360/  4/  6   N/A
WESTERN LI SOUND 0100            71     360/  4/  6   N/A           0
CENTRAL LI SOUND 0000            70 71  330/ 10/ 12   N/A           1
EASTERN LI SOUND 0000            67 68  320/  2/  4   N/A
ROBBINS REEF     0100            71     360/  6/  7 1016.2
$$


>>>>>>>>>>>>>>>>>>>>>>>>>>>> KEY <<<<<<<<<<<<<<<<<<<<<<<<<<<
>                                                          <
>     SKY/WX - SKY CONDITION/PRESENT WEATHER               <
>     TMP    - TEMPERATURE IN FAHRENHEIT                   <
>     DP     - DEWPOINT IN FAHRENHEIT                      <
>     RH     - RELATIVE HUMIDITY IN PERCENT                <
>     WIND   - DIRECTION AND SPEED IN MPH                  <
>     PRES   - MEAN SEA LEVEL PRESSURE IN INCHES OF HG     <
>     WCI    - WIND CHILL INDEX                            <
>     VSB    - VISIBILITY IN MILES                         <
>     HX     - HEAT INDEX                                  <
>     TC     - TEMPERATURE IN CELSIUS                      <
>     VRB    - VARIABLE WIND DIRECTION                     <
>                                                          <
>>>>>>>>>>>>>>>>>>>>>>>>>>>> KEY <<<<<<<<<<<<<<<<<<<<<<<<<<<





USA.gov is the U.S. government's official web portal to all federal, state and local government web resources and services.